Hourly Weather Roundup
Issued by NWS Central Illinois

Home | Current Version | Previous Version | Text Only | Print | Product List | Glossary On
Versions: 1 2 3 4 5 6 7 8 9 10 11 12 13 14 15 16 17 18 19 20 21 22 23 24 25 26 27 28 29 30 31 32 33 34 35 36 37 38 39 40 41 42 43 44 45 46 47 48 49 50
000
NZUS43 KILX 201510
HWRILX

AREA WEATHER ROUNDUP
NATIONAL WEATHER SERVICE, LINCOLN IL
900 AM CST SAT DEC 20 2014


CITY           SKY/WX    TMP DP  RH WIND       PRES   REMARKS
BLOOMINGTON    PTSUNNY   29  27  92 S7        30.28R FOG     WCI  22
CHAMPAIGN      CLOUDY    30  27  88 SE7       30.29S FOG     WCI  23
DECATUR        CLOUDY    31  27  85 SE6       30.29R WCI  25
FLORA          SUNNY     32  28  84 S3        30.32R
GALESBURG      CLOUDY    30  27  89 SE5       30.24S FOG     WCI  25
JACKSONVILLE   CLOUDY    35  29  80 SE5       30.27R WCI  31
LACON          CLOUDY    29  25  84 CALM      30.27R FOG
LAWRENCEVILLE  CLOUDY    31  27  85 CALM      30.32R
LITCHFIELD     CLOUDY    32  27  81 SE7       30.28R WCI  26
$$


CITY           SKY/WX    TMP DP  RH WIND       PRES   REMARKS
LINCOLN        CLOUDY    32  29  90 S5        30.30R WCI  27
MACOMB         CLOUDY    31  28  90 SE7       30.27R FOG     WCI  24
MATTOON        CLOUDY    30  26  85 S6        30.29R WCI  24
MT CARMEL AP   CLOUDY    34  28  80 SE3       30.32R
OLNEY-NOBLE AP CLOUDY    32  28  86 CALM      30.32R
PARIS          CLOUDY    31  29  90 CALM      30.31R
PEORIA         CLOUDY    31  26  82 S3        30.27R HAZE
PONTIAC        CLOUDY    30  28  92 SE5       30.30R FOG     WCI  25
RANTOUL        CLOUDY    31  28  90 SE5       30.29S FOG     WCI  26
ROBINSON       CLOUDY    31  29  90 SE5       30.33R WCI  27
SPRINGFIELD    CLOUDY    33  27  78 SE5       30.29R WCI  29
TAYLORVILLE    CLOUDY    32  28  86 SE6       30.29R FOG     WCI  26
$$

...REGIONAL REPORTS...


CITY           SKY/WX    TMP DP  RH WIND       PRES   REMARKS
CHICAGO O`HARE CLOUDY    30  23  75 SW3       30.27S
KANKAKEE       CLOUDY    30  27  90 CALM      30.29F FOG
MOLINE         CLOUDY    31  25  78 E5        30.25R HAZE    WCI  26
MOUNT VERNON   CLOUDY    34  27  75 E3        30.31S
PITTSFIELD     CLOUDY    33  30  88 S6        30.26R FOG     WCI  28
QUINCY         CLOUDY    33  29  85 S7        30.24R FOG     WCI  27
ROCKFORD       CLOUDY    28  24  85 SE3       30.28S
$$


CITY           SKY/WX    TMP DP  RH WIND       PRES   REMARKS
BURLINGTON     CLOUDY    32  27  81 SE5       30.23S WCI  27
CEDAR RAPIDS   CLOUDY    30  28  92 SE6       30.21R FOG     WCI  24
DES MOINES     CLOUDY    32  29  88 SE5       30.18S FOG     WCI  27
KIRKSVILLE     FOG       34  34 100 S6        30.21R VSB<1/4 WCI  29
OTTUMWA        CLOUDY    32  30  92 S5        30.20S FOG     WCI  27
ST LOUIS       CLOUDY    37  28  70 S5        30.28R WCI  33
$$


CITY           SKY/WX    TMP DP  RH WIND       PRES   REMARKS
TERRE HAUTE    CLOUDY    30  26  85 E6        30.30S WCI  24
EVANSVILLE     CLOUDY    33  25  72 E6        30.32R WCI  28
INDIANAPOLIS   CLOUDY    29  25  85 CALM      30.28S FOG
LAFAYETTE      CLOUDY    29  27  92 CALM      30.30S FOG
MADISON        LGT SNOW  27  23  85 S6        30.25R FOG     WCI  20
MILWAUKEE      CLOUDY    27  19  72 W3        30.28R
$$




USA.gov is the U.S. government's official web portal to all federal, state and local government web resources and services.